Simultaneous Nadir Overpasses (SNOs) Predictions

Prediction of SNOs between GOES-16 and NOAA-19 Satellite Orbit:

Table of predicted SNOs for the next 14.0 days since TLE Epoch: 7/16/2022
Index Date Time (GOES-16) GOES-16 Lat,Lon NOAA-19 Lat,Lon Distance(km) Time Diff (sec)
1 07/17/2022 00:41:08 0.01, -75.19 0.69, -72.11 350.95 80
2 07/19/2022 12:58:53 -0.01, -75.23 0.40, -76.95 196.98 80
3 07/20/2022 12:49:42 -0.01, -75.24 -0.26, -74.06 134.37 80
4 07/21/2022 12:37:50 -0.00, -75.25 -0.92, -71.17 465.80 80
5 07/23/2022 01:07:45 0.01, -75.25 -0.84, -78.98 424.66 80
6 07/24/2022 00:55:54 0.00, -75.27 -0.18, -76.08 93.01 80
7 07/25/2022 00:46:42 0.01, -75.28 0.49, -73.19 238.46 80
8 07/27/2022 13:07:06 -0.00, -75.34 0.63, -78.02 306.66 80
9 07/28/2022 12:52:35 -0.01, -75.36 -0.04, -75.13 25.53 80
10 07/29/2022 12:40:43 -0.01, -75.38 -0.71, -72.24 357.69 80
